NOAA 16 DEB, 41134

Orbit data source: Space-Track

NOAA 16 DEB, 41134 is space debris in SSO originally from a launch on Thu, 21 Sep 2000 UTC launched from the Air Force Western Test Range (AFWTR). Debris objects in space refer to the collection of defunct objects orbiting the Earth. Examples of debris include non-operational satellites, rocket bodies, and fragments generated from explosions, collisions, or faulty payload assembly.

Loading next visibility...
Identifier
41134, 2000-055BR
Orbit
SSO
Country
Flag of USUS
Related business
Manufacturer
Unknown
Mission
Spacecraft
Bus & Motor
Unknown
Mass
Unknown
Launch date (UTC)
2000-09-21 (26 years ago)
Launch vehicle
Unknown
Launch site
Air Force Western Test Range (AFWTR)
Object type
Payload
Rocket body
Debris
Shape & HBR
Unknown shape, 0.1 m
Radar Cross Section
Small (<0.1 m²)

Expand to show TLE details & history
Last TLE update: 4 days ago

TLE from 4 days ago
0 NOAA 16 DEB
1 41134U 00055BR  26161.31425172  .00001454  00000-0  73748-3 0  9990
2 41134  98.6164 196.7855 0028181 156.8214 203.4239 14.17307769540723
Epoch: 2026-06-10T07:32Z
TLE epoch observation values (Epoch: 2026-06-10T07:32:31.348Z)
Latitude
-0.00004°
Longitude
-175.01929°
Altitude
856.049 km
Speed
7.415 km/s
True Right ascension
13h 07m 08s
True Declination
0° 00' 00"
Sunlit
Object was in daylight at epoch
Visualization orbit readout
Latitude
Unknown
Longitude
Unknown
Altitude
Unknown
Speed
Unknown
Apparent Right ascension
Unknown
Apparent Declination
Unknown
Sunlit
N/A
Visualization observer readout
Local Sidereal Time
23:06:43
Azimuth
Unknown
Elevation
Unknown
Doppler factor
Unknown
Orbital elements
Apogee altitude
851.948 km
Perigee altitude
811.312 km
Semi-major axis
7,209.767 km
Eccentricity
0.00282
Inclination
98.6164°
RAAN
196.7855°
Arg. of periapsis
156.8214°
True anomaly
203.29594°
Mean anomaly
203.4239°
Eccentric anomaly
203.35988°
Mean motion
3.54537 °/min
Orbital period
101.54 mins
BSTAR
0.00073748
Loading maneuver chart data...
Computing Atmospheric mass density...
Loading historical data...
Loading historical data...
Loading historical data...
Loading historical data...
Loading historical data...
Loading historical data...
Loading historical data...

Documentation

Showing up to 5 results
|